Location: ????? ????
(37.9717°N, 23.4051°E)
Time: 08:47:07
(UTC+00:00)

Cosmos 540 Rocket - Pass Details

Date: 18 April 2024
Orbit: 737 x 751 km, 74.1° (Epoch: 20 May)

Event Time Altitude Azimuth Distance (km) Brightness Sun altitude
Exits shadow 19:38:56 37° 36° (NE) 1,144 4.4 -27.3°
Drops below altitude 10° 19:42:02 10° 24° (NNE) 2,254 6.1 -27.7°
Sets 19:44:25 0° 22° (NNE) 3,183 7.0 -28.0°
